CAT,Max TemperatureF,Mean TemperatureF,Min TemperatureF,Max Dew PointF,MeanDew PointF,Min DewpointF,Max Humidity, Mean Humidity, Min Humidity, Max Sea Level PressureIn, Mean Sea Level PressureIn, Min Sea Level PressureIn, Max VisibilityMiles, Mean VisibilityMiles, Min VisibilityMiles, Max Wind SpeedMPH, Mean Wind SpeedMPH, Max Gust SpeedMPH,PrecipitationIn, CloudCover, Events, WindDirDegrees
2012-12-1,86,76,66,47,40,34,46,27,9,30.21,30.15,30.12,19,19,19,17,14,,0.00,,,93
2012-12-2,74,68,64,59,56,52,68,58,45,30.24,30.17,30.12,19,13,6,14,10,,0.00,6,Rain,118
2012-12-3,91,76,62,63,55,50,83,47,16,30.12,30.08,29.98,19,9,6,14,9,,0.00,5,Rain-Thunderstorm,35
2012-12-4,87,74,62,66,60,57,94,60,27,30.09,30.04,29.95,19,9,6,15,7,,0.00,6,Rain-Thunderstorm,32
2012-12-5,80,72,63,64,61,55,94,73,47,30.12,30.07,30.01,16,9,6,15,7,,0.00,6,Rain-Thunderstorm,109
2012-12-6,77,70,64,65,63,61,100,86,69,30.18,30.14,30.12,19,7,1,17,11,,0.00,5,Rain-Thunderstorm,119
2012-12-7,83,73,63,66,63,59,94,71,39,30.21,30.14,30.06,16,8,6,10,6,,0.00,6,Rain-Thunderstorm,134
2012-12-8,88,74,62,64,57,50,94,48,22,30.15,30.08,30.01,19,10,6,8,5,,0.00,3,,160
2012-12-9,88,78,67,64,56,52,73,42,20,30.12,30.04,29.95,19,9,6,15,11,,0.00,5,,109
2012-12-10,85,74,64,64,60,53,94,63,23,30.04,30.01,29.95,16,8,6,13,7,,0.00,5,Rain-Thunderstorm,9
2012-12-11,82,73,64,67,62,59,94,76,48,30.01,29.99,29.95,19,8,6,20,11,,0.00,5,Rain-Thunderstorm,84
2012-12-12,77,67,59,62,60,57,94,71,49,30.12,30.10,30.06,16,8,6,21,15,,0.00,6,Rain,105
2012-12-13,75,68,62,61,60,59,94,73,53,30.15,30.10,30.04,19,9,6,20,12,,0.00,6,Rain,118
2012-12-14,85,74,61,54,49,41,72,40,19,30.12,30.08,30.01,19,10,6,15,11,,0.00,6,,107
2012-12-15,88,76,63,59,55,52,72,42,24,30.12,30.05,29.98,19,13,6,14,8,,0.00,1,,35
2012-12-16,87,76,66,63,60,57,78,60,40,30.09,30.04,29.95,16,8,6,13,7,,0.00,5,Rain-Thunderstorm,329
2012-12-17,87,74,63,63,60,57,88,55,30,30.06,30.01,29.92,12,8,6,16,9,,0.00,5,Thunderstorm,113
2012-12-18,87,76,65,63,58,52,83,51,25,30.12,30.07,30.01,16,8,6,15,10,,0.00,5,,105
2012-12-19,88,74,61,57,53,46,77,43,14,30.12,30.08,29.98,19,11,6,17,10,,0.00,2,,92
2012-12-20,90,77,64,58,52,43,77,43,13,30.09,30.02,29.95,16,12,6,13,6,,0.00,6,,29
2012-12-21,87,76,64,52,48,45,56,34,16,30.12,30.09,30.04,16,10,6,20,12,,0.00,2,,113
2012-12-22,84,73,62,50,46,39,63,33,17,30.15,30.08,30.04,19,16,6,17,9,,0.00,6,,115
2012-12-23,90,76,61,55,46,30,59,33,11,30.15,30.09,30.01,19,19,19,12,8,,0.00,,,50
2012-12-24,82,71,60,59,53,48,68,46,28,30.18,30.09,30.04,19,10,6,8,6,,0.00,6,Rain,47
2012-12-25,89,77,65,64,58,55,69,48,26,30.12,30.06,29.98,19,9,6,22,6,,0.00,5,Thunderstorm,357
2012-12-26,91,75,61,65,58,50,94,54,26,30.15,30.08,29.98,19,9,6,15,5,,0.00,3,Rain-Thunderstorm,1
2012-12-27,83,74,66,65,62,59,94,68,35,30.12,30.04,29.95,16,8,6,8,5,,0.00,5,Rain-Thunderstorm,190
2012-12-28,87,74,62,64,61,57,100,64,32,30.12,30.04,29.98,19,8,6,10,6,,0.00,6,Thunderstorm,297
2012-12-29,92,76,63,63,60,54,94,54,20,30.09,30.08,30.04,19,11,6,10,4,,0.00,4,Rain-Thunderstorm,111
2012-12-30,84,78,65,64,62,59,88,64,41,30.12,30.09,30.04,19,10,6,12,6,,0.00,6,Thunderstorm,37
2012-12-31,82,72,63,64,62,59,88,63,41,30.12,30.03,29.98,19,9,6,13,6,,0.00,6,Rain,329